This demonstration page uses our WeatherBlox Daily Observations layout. Learn more.

38.88101, -77.10428

Hourly Observations for January 17, 2017

Temp ( °F °C ) Dew Point ( °F °C ) Humidity (%) Winds ( mph kmh ) Pressure ( in mb ) Visibility ( mi km ) Precip ( " mm )
12:52 am 00:52 Cloudy with Light Rain 41 5 39 3.9 93 93 SSW 6 9 30.28 1025 10 16.0934 0.02 0.508
1:00 am 01:00 Cloudy with Light Rain 41 5 39 4 93 93 S 5 7 30.27 1025 10 16.0934 0 0
1:52 am 01:52 Cloudy 41 5 39 3.9 93 93 SSW 3 6 30.27 1025 10 16.0934 0.01 0.254
2:14 am 02:14 Cloudy 41 5 39 4 93 93 S 3 6 30.27 1025 10 16.0934 0 0
2:52 am 02:52 Cloudy 41 5 39 3.9 93 93 SE 3 6 30.25 1025 10 16.0934 0 0
3:52 am 03:52 Cloudy 41 5 39 3.9 93 93 Calm 30.24 1024 10 16.0934 0 0
4:52 am 04:52 Cloudy with Light Rain 41 5 39 3.9 93 93 S 3 6 30.22 1023 10 16.0934 0.001 0.001
5:52 am 05:52 Cloudy 41 5 39 3.9 93 93 Calm 30.2 1023 10 16.0934 0.001 0.001
6:40 am 06:40 Cloudy 43 6 39 4 87 87 Calm 30.21 1023 10 16.0934 0 0
6:52 am 06:52 Cloudy 42 5.6 40 4.4 92 92 Calm 30.2 1023 10 16.0934 0 0
7:52 am 07:52 Cloudy 42 5.6 40 4.4 92 92 S 3 6 30.2 1023 10 16.0934 0 0
8:33 am 08:33 Cloudy 43 6.1 41 5 93 93 S 3 6 30.21 1023 10 16.0934 0 0
8:52 am 08:52 Cloudy 43 6.1 41 5 93 93 S 5 7 30.21 1023 10 16.0934 0 0
9:52 am 09:52 Cloudy with Light Rain 43 6.1 41 5 93 93 S 7 11 30.21 1023 6 9.65604 0.02 0.508
10:18 am 10:18 Cloudy with Light Rain 43 6 41 5 93 93 S 5 7 30.18 1022 6 9.65604 0 0
10:52 am 10:52 Cloudy with Light Rain 44 6.7 43 6.1 96 96 S 7 11 30.16 1021 4 6.43736 0.04 1.016
10:55 am 10:55 Cloudy with Light Rain 44 6.7 43 6.1 96 96 SSE 7 11 30.15 1021 5 8.0467 0.001 0.001
11:52 am 11:52 Cloudy with Mist and Fog 47 8.3 45 7.2 93 93 S 9 15 30.1 1019 6 9.65604 0.001 0.001
12:52 pm 12:52 Cloudy with Light Rain 47 8.3 45 7.2 93 93 SSW 14 22 30.09 1019 6 9.65604 0.001 0.001
1:52 pm 13:52 Cloudy with Mist and Fog 47 8.3 45 7.2 93 93 S 7 11 30.05 1018 5 8.0467 0.02 0.508
2:22 pm 14:22 Cloudy with Rain 46 8 46 8 100 100 S 5 7 30.06 1018 2.5 4.02335 0 0
2:33 pm 14:33 Cloudy with Light Rain 47 8.3 47 8.3 100 100 Calm 30.03 1017 3 4.82802 0.03 0.762
2:52 pm 14:52 Cloudy with Light Rain 46 7.8 45 7.2 96 96 S 8 13 30.03 1017 2 3.21868 0.07 1.778
2:59 pm 14:59 Cloudy with Light Rain 46 7.8 46 7.8 100 100 S 6 9 30.03 1017 3 4.82802 0.001 0.001
3:13 pm 15:13 Cloudy with Rain 47 8.3 47 8.3 100 100 S 9 15 30.03 1017 3 4.82802 0.01 0.254
3:18 pm 15:18 Cloudy with Light Rain 46 8 46 8 100 100 S 8 13 30.03 1017 2.5 4.02335 0 0
3:26 pm 15:26 Cloudy with Light Rain 46 8 46 8 100 100 S 7 11 30 1016 3 4.82802 0 0
3:39 pm 15:39 Cloudy with Light Rain 48 8.9 47 8.3 96 96 S 8 13 30 1016 4 6.43736 0.03 0.762
3:52 pm 15:52 Cloudy with Mist and Fog 48 8.9 48 8.9 100 100 S 7 11 30 1016 6 9.65604 0.03 0.762
3:57 pm 15:57 Cloudy with Mist and Fog 48 8.9 48 8.9 100 100 S 7 11 30 1016 6 9.65604 0 0
4:26 pm 16:26 Cloudy with Mist and Fog 49 9.4 48 8.9 97 97 S 6 9 30 1016 6 9.65604 0 0
4:52 pm 16:52 Cloudy with Mist and Fog 49 9.4 48 8.9 97 97 S 7 11 29.99 1016 5 8.0467 0 0
4:57 pm 16:57 Cloudy with Mist and Fog 49 9.4 49 9.4 100 100 S 6 9 30 1016 5 8.0467 0 0
5:06 pm 17:06 Cloudy with Mist and Fog 50 10 48 9 94 94 S 6 9 30 1016 5 8.0467 0 0
5:52 pm 17:52 Cloudy with Mist and Fog 50 10 49 9.4 96 96 S 6 9 29.97 1015 6 9.65604 0 0
6:13 pm 18:13 Cloudy with Mist and Fog 48 8.9 48 8.9 100 100 S 8 13 29.97 1015 3 4.82802 0 0
6:52 pm 18:52 Cloudy with Mist and Fog 51 10.6 51 10.6 100 100 S 3 6 29.96 1015 6 9.65604 0 0
7:41 pm 19:41 Cloudy with Mist and Fog 50 10 49 9.4 96 96 Calm 29.97 1015 5 8.0467 0 0
7:52 pm 19:52 Cloudy with Light Drizzle 49 9.4 48 8.9 97 97 NNE 5 7 29.96 1015 3 4.82802 0.001 0.001
7:57 pm 19:57 Cloudy with Light Drizzle 49 9.4 48 8.9 97 97 NE 3 6 29.97 1015 2 3.21868 0.001 0.001
7:59 pm 19:59 Cloudy with Light Drizzle 49 9.4 48 8.9 97 97 NE 3 6 29.97 1015 3 4.82802 0.001 0.001
8:52 pm 20:52 Cloudy with Mist and Fog 50 10 50 10 100 100 Calm 29.94 1014 4 6.43736 0.001 0.001
9:33 pm 21:33 Mostly Clear with Mist and Fog 51 10.6 51 10.6 100 100 S 7 11 29.91 1013 3 4.82802 0 0
9:48 pm 21:48 Mostly Cloudy with Mist and Fog 52 11 52 11 100 100 S 5 7 29.91 1013 5 8.0467 0 0
9:52 pm 21:52 Mostly Cloudy with Mist and Fog 51 10.6 51 10.6 100 100 S 3 6 29.92 1013 4 6.43736 0 0
10:06 pm 22:06 Mostly Cloudy with Mist and Fog 46 8 46 8 100 100 N 5 7 29.91 1013 5 8.0467 0 0
10:19 pm 22:19 Mostly Cloudy with Mist and Fog 48 8.9 48 8.9 100 100 Calm 29.91 1013 5 8.0467 0 0
10:32 pm 22:32 Cloudy with Mist and Fog 46 8 46 8 100 100 NNE 5 7 29.91 1013 5 8.0467 0 0
10:38 pm 22:38 Cloudy with Mist and Fog 46 8 46 8 100 100 NE 7 11 29.91 1013 5 8.0467 0 0
10:40 pm 22:40 Cloudy with Mist and Fog 48 9 48 9 100 100 NE 8 13 29.91 1013 5 8.0467 0 0
10:43 pm 22:43 Cloudy with Mist and Fog 48 8.9 48 8.9 100 100 NE 8 13 29.91 1013 5 8.0467 0 0
10:52 pm 22:52 Cloudy with Mist and Fog 47 8.3 47 8.3 100 100 ENE 9 15 29.91 1013 3 4.82802 0 0
11:32 pm 23:32 Mostly Clear with Mist and Fog 46 8 46 8 100 100 NNE 5 7 29.91 1013 1.5 2.41401 0 0
11:39 pm 23:39 Mostly Clear with Mist and Fog 46 7.8 46 7.8 100 100 NNE 5 7 29.91 1013 0.75 1.207005 0 0
11:47 pm 23:47 Mostly Cloudy with Fog 46 8 46 8 100 100 N 5 7 29.88 1012 0.25 0.402335 0 0
11:52 pm 23:52 Mostly Cloudy with Fog 46 7.8 46 7.8 100 100 N 3 6 29.88 1012 1 1.60934 0 0

Powered by AerisWeather